Location: Misciano
(43.5000°N, 11.9500°E)
Time: 15:28:12
(UTC+00:00)

Cosmos 2237 - Pass Details

Date: 13 August 2020
Orbit: 847 x 855 km, 70.8° (Epoch: 18 September)

Event Time Altitude Azimuth Distance (km) Brightness Sun altitude
Rises 20:50:57 0° 338° (NNW) 3,431 8.6 -23.3°
Reaches altitude 10° 20:53:29 10° 342° (NNW) 2,490 7.6 -23.5°
Maximum altitude 20:59:06 56° 61° (ENE) 1,010 4.5 -24.2°
Enters shadow 21:00:00 50° 96° (E) 1,075 4.4 -24.3°
